QPF
0.00 0.00 0.00 0.00 0.00 0.00 0.00 0.00 0.00 0.00 0.00 0.00 0.00 0.00 0.00 0.00 0.00 0.00 0.00 0.00 0.00 0.00 0.00 0.00 0.00 0.00 0.00 0.00 0.00 0.00 0.00 0.00 0.00 0.00 0.00 0.00 0.00 0.00 0.00 0.00 0.00 0.00 0.00 0.00
0.00 0.00 0.00 0.00 0.00 0.00 0.00 0.00 0.00 0.00 0.00 0.00 0.00 0.00 0.00 0.00 0.00 0.00 0.00 0.00 0.00 0.00 0.00 0.00 0.00 0.00 0.00 0.00 0.00 0.00 0.00 0.00 0.00 0.00 0.00 0.00 0.00 0.00 0.00 0.00 0.00 0.00 0.00 0.00
0.00 0.00 0.00 0.00 0.00 0.00 0.00 0.00 0.00 0.00 0.00 0.00 0.00 0.00 0.00 0.00 0.00 0.00 0.00 0.00 0.00 0.00 0.00 0.00 0.00 0.00 0.00 0.00 0.00 0.00 0.00 0.00 0.00 0.00 0.00 0.00 0.00 0.00 0.00 0.00 0.00 0.00 0.00 0.00
0.00 0.00 0.00 0.00 0.00 0.00 0.00 0.00 0.00 0.00 0.00 0.00 0.00 0.00 0.00 0.00 0.00 0.00 0.00 0.00 0.00 0.00 0.00 0.00 0.00 0.00 0.00 0.00 0.00 0.00 0.00 0.00 0.00 0.00 0.00 0.00 0.00 0.00 0.00 0.00 0.00 0.00 0.00 0.00
0.00 0.00 0.00 0.00 0.00 0.00 0.00 0.00 0.00 0.00 0.00 0.00 0.00 0.00 0.00 0.00 0.00 0.00 0.00 0.00 0.00 0.00 0.00 0.00 0.00 0.00 0.00 0.00 0.00 0.00 0.00 0.00 0.00 0.00 0.00 0.00 0.00 0.00 0.00 0.00 0.00 0.00 0.00 0.00
0.00 0.00 0.00 0.00 0.00 0.00 0.00 0.00 0.00 0.00 0.00 0.00 0.00 0.00 0.00 0.00 0.00 0.00 0.00 0.00 0.00 0.00 0.00 0.00 0.00 0.00 0.00 0.00 0.00 0.00 0.00 0.00 0.00 0.00 0.00 0.00 0.00 0.00 0.00 0.00 0.00 0.00 0.00 0.00
0.00 0.00 0.00 0.00 0.00 0.00 0.00 0.00 0.00 0.00 0.00 0.00 0.00 0.00 0.00 0.00 0.00 0.00 0.00 0.00 0.00 0.00 0.00 0.00 0.00 0.00 0.00 0.00 0.00 0.00 0.00 0.00 0.00 0.00 0.00 0.00 0.00 0.00 0.00 0.00 0.00 0.00 0.00 0.00
0.00 0.00 0.00 0.00 0.00 0.00 0.00 0.00 0.00 0.00 0.00 0.00 0.00 0.00 0.00 0.00 0.00 0.00 0.00 0.00 0.00 0.00 0.00 0.00 0.00 0.00 0.00 0.00 0.00 0.00 0.00 0.00 0.00 0.00 0.00 0.00 0.00 0.00 0.00 0.00 0.00 0.00 0.00 0.00
0.00 0.00 0.00 0.00 0.00 0.00 0.00 0.00 0.00 0.00 0.00 0.00 0.00 0.00 0.00 0.00 0.00 0.00 0.00 0.00 0.00 0.00 0.00 0.00 0.00 0.00 0.00 0.00 0.00 0.00 0.00 0.00 0.00 0.00 0.00 0.00 0.00 0.00 0.00 0.00 0.00 0.00 0.00 0.00
0.00 0.00 0.00 0.00 0.00 0.00 0.00 0.00 0.00 0.00 0.00 0.00 0.00 0.00 0.00 0.00 0.00 0.00 0.00 0.00 0.00 0.00 0.00 0.00 0.00 0.00 0.00 0.00 0.00 0.00 0.00 0.00 0.00 0.00 0.00 0.00 0.00 0.00 0.00 0.00 0.00 0.00 0.00 0.00
0.00 0.00 0.00 0.00 0.00 0.00 0.00 0.00 0.00 0.00 0.00 0.00 0.00 0.00 0.00 0.00 0.00 0.00 0.00 0.00 0.00 0.00 0.00 0.00 0.00 0.00 0.00 0.00 0.00 0.00 0.00 0.00 0.00 0.00 0.00 0.00 0.00 0.00 0.00 0.00 0.00 0.00 0.00 0.00
0.00 0.00 0.00 0.00 0.00 0.00 0.00 0.00 0.00 0.00 0.00 0.00 0.00 0.00 0.00 0.00 0.00 0.00 0.00 0.00 0.00 0.00 0.00 0.00 0.00 0.00 0.00 0.00 0.00 0.00 0.00 0.00 0.00 0.00 0.00 0.00 0.00 0.00 0.00 0.00 0.00 0.00 0.00 0.00
0.00 0.00 0.00 0.00 0.00 0.00 0.00 0.00 0.00 0.00 0.00 0.00 0.00 0.00 0.00 0.00 0.00 0.00 0.00 0.00 0.00 0.00 0.00 0.00 0.00 0.00 0.00 0.00 0.00 0.00 0.00 0.00 0.00 0.00 0.00 0.00 0.00 0.00 0.00 0.00 0.00 0.00 0.00 0.00
0.00 0.00 0.00 0.00 0.00 0.00 0.00 0.00 0.00 0.00 0.00 0.00 0.00 0.00 0.00 0.00 0.00 0.00 0.00 0.00 0.00 0.00 0.00 0.00 0.00 0.00 0.00 0.00 0.00 0.00 0.00 0.00 0.00 0.00 0.00 0.00 0.00 0.00 0.00 0.00 0.00 0.00 0.00 0.00
0.00 0.00 0.00 0.00 0.00 0.00 0.00 0.00 0.00 0.00 0.00 0.00 0.00 0.00 0.00 0.00 0.00 0.00 0.00 0.00 0.00 0.00 0.00 0.00 0.00 0.00 0.00 0.00 0.00 0.00 0.00 0.00 0.00 0.00 0.00 0.00 0.00 0.00 0.00 0.00 0.00 0.00 0.00 0.00
0.00 0.00 0.00 0.00 0.00 0.00 0.00 0.00 0.00 0.00 0.00 0.00 0.00 0.00 0.00 0.00 0.00 0.00 0.00 0.00 0.00 0.00 0.00 0.00 0.00 0.00 0.00 0.00 0.00 0.00 0.00 0.00 0.00 0.00 0.00 0.00 0.00 0.00 0.00 0.00 0.00 0.00 0.00 0.00
0.00 0.00 0.00 0.00 0.00 0.00 0.00 0.00 0.00 0.00 0.00 0.00 0.00 0.00 0.00 0.00 0.00 0.00 0.00 0.00 0.00 0.00 0.00 0.00 0.00 0.00 0.00 0.00 0.00 0.00 0.00 0.00 0.00 0.00 0.00 0.00 0.00 0.00 0.00 0.00 0.00 0.00 0.00 0.00
0.00 0.00 0.00 0.00 0.00 0.00 0.00 0.00 0.00 0.00 0.00 0.00 0.00 0.00 0.00 0.00 0.00 0.00 0.00 0.00 0.00 0.00 0.00 0.00 0.00 0.00 0.00 0.00 0.00 0.00 0.00 0.00 0.00 0.00 0.00 0.00 0.00 0.00 0.00 0.00 0.00 0.00 0.00 0.00
0.00 0.00 0.00 0.00 0.00 0.00 0.00 0.00 0.00 0.00 0.00 0.00 0.00 0.00 0.00 0.00 0.00 0.00 0.00 0.00 0.00 0.00 0.00 0.00 0.00 0.00 0.00 0.00 0.00 0.00 0.00 0.00 0.00 0.00 0.00 0.00 0.00 0.00 0.00 0.00 0.00 0.00 0.00 0.00
0.00 0.00 0.00 0.00 0.00 0.00 0.00 0.00 0.00 0.00 0.00 0.00 0.00 0.00 0.00 0.00 0.00 0.00 0.00 0.00 0.00 0.00 0.00 0.00 0.00 0.00 0.00 0.00 0.00 0.00 0.00 0.00 0.00 0.00 0.00 0.00 0.00 0.00 0.00 0.00 0.00 0.00 0.00 0.00
0.00 0.00 0.00 0.00 0.00 0.00 0.00 0.00 0.00 0.00 0.00 0.00 0.00 0.00 0.00 0.00 0.00 0.00 0.00 0.00 0.00 0.00 0.00 0.00 0.00 0.00 0.00 0.00 0.00 0.00 0.00 0.00 0.00 0.00 0.00 0.00 0.00 0.00 0.00 0.00 0.00 0.00 0.00 0.00
0.00 0.00 0.00 0.00 0.00 0.00 0.00 0.00 0.00 0.00 0.00 0.00 0.00 0.00 0.00 0.00 0.00 0.00 0.00 0.00 0.00 0.00 0.00 0.00 0.00 0.00 0.00 0.00 0.00 0.00 0.00 0.00 0.00 0.00 0.00 0.00 0.00 0.00 0.00 0.00 0.00 0.00 0.00 0.00
0.00 0.00 0.00 0.00 0.00 0.00 0.00 0.00 0.00 0.00 0.00 0.00 0.00 0.00 0.00 0.00 0.00 0.00 0.00 0.00 0.00 0.00 0.00 0.00 0.00 0.00 0.00 0.00 0.00 0.00 0.00 0.00 0.00 0.00 0.00 0.00 0.00 0.00 0.00 0.00 0.00 0.00 0.00 0.00
0.00 0.00 0.00 0.00 0.00 0.00 0.00 0.00 0.00 0.00 0.00 0.00 0.00 0.00 0.00 0.00 0.00 0.00 0.00 0.00 0.00 0.00 0.00 0.00 0.00 0.00 0.00 0.00 0.00 0.00 0.00 0.00 0.00 0.00 0.00 0.00 0.00 0.00 0.00 0.00 0.00 0.00 0.00 0.00
0.00 0.00 0.00 0.00 0.00 0.00 0.00 0.00 0.00 0.00 0.00 0.00 0.00 0.00 0.00 0.00 0.00 0.00 0.00 0.00 0.00 0.00 0.00 0.00 0.00 0.00 0.00 0.00 0.00 0.00 0.00 0.00 0.00 0.00 0.00 0.00 0.00 0.00 0.00 0.00 0.00 0.00 0.00 0.00
0.00 0.00 0.00 0.00 0.00 0.00 0.00 0.00 0.00 0.00 0.00 0.00 0.00 0.00 0.00 0.00 0.00 0.00 0.00 0.00 0.00 0.00 0.00 0.00 0.00 0.00 0.00 0.00 0.00 0.00 0.00 0.00 0.00 0.00 0.00 0.00 0.00 0.00 0.00 0.00 0.00 0.00 0.00 0.00
0.00 0.00 0.00 0.00 0.00 0.00 0.00 0.00 0.00 0.00 0.00 0.00 0.00 0.00 0.00 0.00 0.00 0.00 0.00 0.00 0.00 0.00 0.00 0.00 0.00 0.00 0.00 0.00 0.00 0.00 0.00 0.00 0.00 0.00 0.00 0.00 0.00 0.00 0.00 0.00 0.00 0.00 0.00 0.00
MSLP
1025.79 1025.50 1025.14 1024.79 1024.23 1023.95 1023.73 1023.82 1023.84 1024.13 1023.75 1023.63 1024.19 1024.11 1024.26 1024.41 1024.60 1024.86 1024.85 1024.82 1024.81 1024.83 1025.02 1025.27 1025.41 1025.52 1025.37 1025.28 1025.38 1025.31 1025.28 1024.76 1023.27 1021.82 1021.84 1021.64 1021.90 1022.02 1022.01 1021.47 1020.64 1019.61 1018.75 1017.15
1025.99 1025.63 1025.22 1024.79 1024.40 1024.24 1023.96 1024.02 1024.34 1024.25 1024.03 1024.09 1024.28 1024.64 1024.50 1024.45 1024.52 1024.47 1024.56 1024.64 1024.78 1024.73 1024.70 1024.96 1025.04 1025.10 1024.92 1025.15 1025.16 1025.18 1025.32 1024.63 1023.12 1021.48 1021.80 1021.59 1021.25 1021.38 1021.42 1021.12 1020.60 1019.16 1018.40 1016.68
1026.18 1025.80 1025.50 1025.01 1024.59 1024.43 1024.49 1024.31 1024.54 1024.46 1024.48 1025.21 1024.56 1024.60 1024.63 1024.62 1024.68 1024.50 1024.51 1024.37 1024.53 1024.64 1024.58 1024.73 1024.72 1024.75 1024.81 1025.06 1025.08 1025.13 1025.12 1024.48 1023.36 1022.00 1020.86 1021.03 1020.62 1020.45 1020.80 1020.86 1020.13 1018.50 1017.43 1016.19
1026.29 1025.90 1025.54 1025.07 1024.71 1024.48 1024.58 1024.87 1025.51 1025.52 1025.04 1024.99 1024.93 1024.88 1024.82 1024.69 1024.52 1024.68 1024.57 1024.37 1024.32 1024.42 1024.44 1024.33 1024.37 1024.56 1024.73 1024.98 1025.04 1025.20 1025.00 1024.18 1023.24 1021.85 1020.91 1020.59 1020.07 1019.59 1019.64 1019.66 1019.02 1018.61 1016.33 1016.04
1026.33 1026.00 1025.58 1025.19 1024.73 1024.54 1024.55 1025.13 1025.34 1025.79 1025.34 1025.27 1024.93 1024.98 1024.77 1024.63 1024.70 1024.79 1024.40 1024.31 1024.30 1024.36 1024.20 1023.86 1023.88 1024.28 1024.48 1024.45 1025.17 1025.19 1025.30 1024.07 1022.93 1020.93 1020.07 1019.70 1018.92 1018.26 1018.04 1017.86 1017.53 1016.93 1016.05 1015.07
1026.24 1026.04 1025.68 1025.27 1024.93 1024.60 1025.04 1025.96 1025.83 1025.06 1025.20 1025.09 1024.84 1024.52 1024.56 1024.44 1024.62 1024.50 1024.41 1024.51 1024.55 1024.21 1023.81 1023.82 1023.65 1023.83 1024.09 1024.23 1024.60 1024.95 1025.02 1024.20 1023.00 1020.77 1019.75 1018.70 1017.30 1016.11 1016.28 1016.11 1015.76 1015.30 1014.67 1013.76
1026.26 1026.03 1025.84 1025.51 1025.35 1025.17 1025.45 1025.83 1025.72 1025.20 1024.78 1024.69 1024.21 1024.39 1024.46 1024.37 1024.52 1024.50 1024.38 1024.60 1024.73 1024.42 1024.21 1023.91 1023.83 1023.64 1023.77 1024.08 1024.36 1024.67 1024.57 1024.36 1023.55 1021.49 1019.74 1017.86 1016.03 1015.87 1015.62 1015.38 1014.57 1014.31 1014.06 1013.75
1025.99 1026.09 1025.83 1025.74 1025.57 1025.63 1025.71 1026.33 1026.03 1025.22 1024.42 1024.26 1024.15 1024.45 1024.60 1024.47 1024.49 1024.62 1024.47 1024.29 1024.40 1024.42 1024.12 1023.35 1022.84 1022.92 1023.06 1023.56 1024.12 1024.40 1024.48 1024.35 1023.51 1022.50 1020.76 1017.63 1015.44 1015.62 1015.55 1015.24 1013.80 1013.42 1013.62 1013.63
1025.56 1025.83 1025.79 1025.60 1025.56 1025.74 1025.78 1026.43 1026.62 1026.00 1025.24 1024.06 1024.08 1024.09 1024.43 1024.36 1024.30 1024.40 1024.50 1024.57 1024.59 1024.41 1023.97 1023.45 1023.05 1022.45 1022.67 1022.93 1023.71 1024.25 1024.37 1024.35 1023.99 1022.85 1021.21 1017.81 1015.50 1015.51 1015.51 1015.33 1013.86 1013.14 1013.41 1013.52
1024.91 1025.26 1025.62 1025.60 1025.52 1025.85 1026.07 1026.55 1026.77 1026.35 1025.58 1024.31 1024.44 1024.27 1024.07 1024.26 1024.28 1024.19 1024.54 1024.56 1024.59 1024.44 1023.80 1023.49 1023.08 1022.63 1022.94 1022.58 1022.67 1023.37 1023.79 1023.71 1023.01 1022.18 1020.96 1017.45 1015.29 1015.42 1015.57 1015.08 1013.87 1013.31 1013.43 1013.51
1024.72 1024.66 1025.11 1025.43 1025.38 1025.40 1025.67 1026.64 1026.85 1026.59 1025.89 1024.73 1024.60 1024.41 1024.31 1024.55 1024.23 1023.73 1024.33 1024.79 1024.63 1024.30 1023.62 1023.22 1022.88 1022.80 1022.63 1022.51 1021.61 1021.43 1021.54 1021.65 1021.32 1020.98 1019.81 1016.72 1015.05 1015.64 1014.96 1013.57 1013.39 1013.48 1013.52 1013.44
1024.11 1024.42 1024.58 1025.00 1025.25 1025.32 1025.56 1026.03 1026.73 1026.97 1026.51 1024.87 1024.65 1024.11 1023.86 1023.81 1023.71 1023.73 1024.21 1024.04 1023.95 1023.75 1023.52 1023.48 1023.14 1022.68 1022.52 1021.97 1020.78 1020.80 1020.34 1019.23 1018.86 1018.42 1015.61 1014.21 1014.23 1013.50 1013.26 1013.48 1013.35 1013.21 1013.25 1013.08
1023.46 1023.84 1024.05 1024.46 1024.67 1024.89 1025.28 1025.57 1026.04 1026.31 1026.15 1024.60 1024.57 1024.03 1024.08 1024.31 1024.10 1023.76 1023.75 1024.09 1023.79 1023.93 1023.98 1023.53 1023.19 1022.63 1022.07 1021.28 1020.32 1019.78 1018.97 1018.77 1018.07 1017.09 1013.13 1013.52 1013.44 1013.27 1013.13 1013.19 1013.01 1012.79 1012.71 1012.63
1022.73 1023.18 1023.46 1023.92 1024.30 1024.44 1024.78 1025.14 1025.32 1025.29 1025.66 1025.21 1023.69 1023.81 1023.90 1023.99 1024.04 1023.99 1024.03 1023.97 1024.36 1024.16 1024.13 1023.58 1023.16 1022.48 1021.88 1020.66 1019.87 1019.14 1017.51 1018.02 1016.52 1015.20 1013.56 1013.16 1012.64 1012.78 1012.91 1013.03 1013.04 1012.86 1012.65 1012.46
1021.86 1022.30 1022.71 1023.18 1023.73 1024.04 1024.37 1024.64 1024.99 1024.69 1025.06 1024.82 1023.45 1023.42 1023.80 1024.09 1023.97 1024.14 1024.18 1024.19 1024.25 1024.22 1024.07 1023.48 1022.96 1022.56 1022.40 1021.12 1020.46 1017.35 1016.22 1014.86 1014.81 1012.84 1012.29 1012.53 1012.43 1012.76 1013.16 1013.08 1012.72 1012.49 1012.41 1012.16
1020.95 1021.43 1021.89 1022.53 1023.28 1023.97 1024.61 1024.59 1024.42 1024.76 1025.00 1024.97 1024.23 1023.60 1023.62 1023.93 1024.16 1024.31 1024.52 1024.60 1024.60 1024.34 1023.73 1023.14 1022.42 1022.19 1022.11 1020.73 1018.10 1013.99 1013.73 1013.21 1012.56 1012.21 1012.64 1012.80 1012.66 1012.84 1012.84 1012.80 1012.63 1012.43 1012.22 1011.81
1020.15 1020.47 1021.13 1021.78 1022.55 1023.20 1023.68 1023.69 1023.64 1023.73 1024.78 1025.06 1024.24 1023.13 1023.46 1023.70 1024.11 1024.55 1024.77 1024.82 1024.74 1024.61 1023.95 1023.09 1022.34 1021.98 1021.75 1019.78 1016.27 1011.65 1012.01 1012.05 1012.24 1012.57 1013.03 1012.66 1012.16 1012.20 1012.46 1012.78 1012.52 1012.32 1011.99 1011.65
1019.37 1019.74 1020.23 1021.03 1021.97 1022.97 1023.12 1023.16 1023.45 1023.73 1024.57 1025.14 1024.62 1023.19 1023.49 1023.42 1023.68 1024.23 1024.66 1024.53 1024.60 1024.13 1023.25 1022.80 1022.03 1021.70 1020.77 1017.37 1011.55 1011.36 1011.69 1011.65 1011.87 1012.13 1012.45 1012.13 1012.18 1012.18 1012.12 1012.19 1012.14 1011.87 1011.41 1011.13
1018.74 1019.26 1020.02 1021.49 1022.10 1022.68 1022.50 1022.60 1023.24 1023.76 1024.34 1024.14 1023.82 1023.35 1022.80 1023.40 1023.27 1023.77 1024.55 1024.44 1024.07 1023.57 1022.78 1021.94 1021.44 1019.76 1017.09 1011.63 1010.84 1010.73 1010.92 1010.94 1010.81 1011.58 1012.09 1012.26 1012.21 1011.97 1011.90 1011.92 1011.69 1011.44 1011.02 1010.90
1018.68 1019.40 1020.68 1021.43 1021.45 1021.88 1022.46 1023.40 1023.67 1023.69 1023.21 1022.91 1021.85 1021.20 1021.79 1022.17 1022.72 1023.01 1023.58 1023.70 1023.10 1022.67 1021.28 1021.29 1020.17 1016.35 1012.14 1010.45 1009.69 1009.78 1010.06 1010.29 1010.88 1011.22 1011.37 1011.48 1011.33 1011.28 1011.29 1011.38 1011.44 1011.15 1010.60 1010.37
1018.46 1019.57 1020.48 1021.14 1021.52 1021.94 1022.06 1022.23 1022.38 1022.05 1021.31 1020.26 1019.75 1019.59 1020.15 1021.29 1021.16 1021.88 1022.39 1022.46 1022.55 1021.96 1020.38 1020.36 1017.71 1014.07 1010.27 1008.72 1008.45 1008.47 1009.26 1009.89 1010.23 1010.38 1010.49 1010.99 1011.16 1011.09 1010.99 1010.81 1010.80 1010.70 1010.40 1010.04
1017.28 1018.75 1020.34 1021.18 1021.54 1021.72 1021.67 1020.61 1020.00 1019.57 1018.79 1018.35 1018.53 1018.71 1019.15 1020.41 1020.54 1020.77 1021.74 1021.56 1021.88 1020.75 1020.19 1019.63 1015.78 1010.59 1007.90 1008.33 1008.18 1008.16 1008.56 1009.31 1010.06 1010.52 1010.71 1010.79 1011.21 1011.03 1011.04 1010.74 1010.40 1010.33 1010.03 1009.73
1017.56 1018.61 1019.84 1019.99 1020.19 1020.12 1018.52 1017.67 1017.58 1017.29 1017.07 1016.92 1017.48 1018.47 1019.08 1020.28 1020.28 1020.27 1020.66 1020.79 1020.55 1020.08 1019.28 1015.96 1011.25 1008.02 1007.72 1007.79 1008.32 1008.43 1008.73 1009.12 1009.51 1010.01 1010.17 1010.28 1010.81 1011.04 1010.98 1010.55 1010.22 1010.02 1009.79 1009.44
1016.83 1017.33 1017.88 1017.52 1016.81 1014.88 1013.37 1012.83 1013.06 1013.79 1014.46 1015.43 1016.28 1017.47 1018.16 1018.74 1019.43 1019.46 1019.34 1018.94 1019.27 1018.56 1016.76 1012.66 1008.84 1006.83 1006.94 1007.57 1008.08 1008.38 1008.51 1008.74 1008.82 1009.39 1009.69 1009.68 1009.80 1010.26 1010.19 1010.28 1009.93 1009.65 1009.35 1009.11
1015.37 1015.40 1014.56 1013.87 1012.00 1011.79 1011.99 1012.46 1012.71 1013.08 1013.46 1014.59 1016.26 1016.90 1017.36 1017.93 1018.10 1017.87 1017.91 1018.15 1016.64 1015.03 1012.24 1009.52 1007.35 1007.09 1006.85 1007.28 1007.78 1008.12 1008.27 1008.49 1008.63 1008.71 1009.03 1009.04 1009.18 1009.65 1009.33 1009.34 1009.33 1009.27 1009.09 1008.83
1013.75 1013.28 1012.57 1011.80 1011.68 1011.45 1012.03 1011.98 1012.59 1013.02 1013.56 1014.43 1014.80 1015.73 1016.13 1015.74 1015.48 1015.77 1014.69 1014.33 1011.92 1009.37 1008.51 1006.99 1006.76 1006.83 1006.80 1006.94 1007.23 1007.12 1007.32 1007.47 1007.93 1008.44 1008.87 1008.85 1008.77 1008.98 1008.89 1008.63 1008.56 1008.48 1008.45 1008.19
1012.27 1011.52 1010.88 1010.42 1010.06 1009.81 1010.17 1010.75 1011.19 1011.94 1012.48 1012.50 1013.07 1013.19 1012.80 1012.88 1012.83 1012.08 1011.28 1009.42 1007.27 1006.49 1005.91 1005.86 1006.00 1006.25 1005.92 1005.98 1006.74 1006.86 1007.07 1007.28 1007.51 1007.45 1007.69 1007.83 1007.76 1008.24 1008.51 1008.29 1007.62 1007.76 1007.87 1007.96
Thickness
5577 5576 5574 5570 5568 5566 5563 5559 5563 5549 5546 5549 5529 5533 5531 5522 5520 5512 5510 5509 5507 5508 5504 5494 5487 5490 5485 5490 5488 5487 5483 5482 5490 5515 5499 5499 5493 5491 5492 5497 5507 5508 5512 5531
5577 5576 5577 5576 5574 5570 5566 5565 5558 5551 5549 5550 5543 5531 5529 5527 5523 5520 5516 5512 5509 5508 5509 5503 5500 5496 5500 5491 5491 5492 5483 5489 5505 5522 5504 5495 5504 5495 5496 5500 5494 5511 5517 5537
5578 5577 5575 5576 5576 5573 5568 5567 5565 5561 5550 5533 5546 5540 5533 5529 5521 5522 5518 5517 5512 5509 5509 5505 5505 5503 5499 5490 5491 5488 5487 5488 5499 5522 5524 5511 5511 5515 5504 5497 5497 5523 5526 5530
5577 5577 5577 5577 5577 5576 5572 5566 5555 5547 5554 5551 5541 5536 5532 5531 5529 5521 5518 5518 5516 5514 5509 5510 5504 5501 5497 5489 5489 5487 5489 5492 5496 5507 5512 5511 5510 5512 5514 5499 5503 5506 5534 5522
5576 5576 5577 5577 5578 5578 5575 5578 5568 5545 5548 5539 5545 5536 5539 5534 5530 5523 5524 5520 5517 5513 5513 5519 5514 5503 5500 5502 5485 5482 5479 5499 5501 5518 5522 5519 5519 5530 5530 5529 5528 5528 5536 5538
5575 5575 5574 5576 5577 5577 5572 5556 5553 5565 5546 5548 5551 5553 5544 5540 5529 5529 5526 5521 5517 5516 5520 5517 5515 5510 5506 5504 5497 5491 5489 5495 5509 5522 5529 5532 5550 5555 5546 5546 5545 5546 5546 5559
5573 5572 5572 5572 5572 5572 5568 5560 5559 5566 5570 5556 5561 5548 5543 5542 5536 5533 5529 5521 5517 5519 5510 5510 5505 5503 5501 5497 5495 5495 5493 5494 5503 5511 5531 5555 5562 5554 5553 5551 5556 5554 5552 5554
5570 5569 5568 5566 5566 5565 5562 5553 5556 5563 5576 5563 5556 5545 5543 5540 5536 5532 5529 5528 5521 5513 5514 5523 5528 5524 5518 5504 5492 5489 5493 5496 5503 5499 5503 5550 5566 5552 5550 5550 5565 5562 5555 5553
5568 5565 5563 5564 5562 5560 5558 5552 5547 5550 5560 5572 5559 5556 5546 5550 5546 5538 5531 5523 5518 5516 5519 5522 5525 5539 5523 5529 5503 5488 5485 5489 5491 5492 5493 5547 5566 5555 5549 5548 5560 5565 5556 5554
5568 5563 5560 5559 5559 5556 5551 5548 5544 5546 5552 5557 5551 5556 5556 5543 5538 5544 5529 5528 5524 5517 5525 5524 5526 5534 5512 5529 5528 5498 5489 5486 5492 5498 5497 5541 5563 5553 5545 5554 5567 5560 5554 5552
5562 5561 5557 5554 5554 5553 5549 5542 5538 5540 5546 5552 5544 5544 5542 5534 5538 5551 5534 5529 5523 5522 5528 5528 5529 5522 5524 5514 5528 5524 5521 5510 5508 5503 5495 5521 5555 5540 5554 5567 5558 5554 5550 5551
5561 5556 5555 5551 5548 5546 5544 5541 5533 5530 5534 5550 5541 5544 5543 5543 5543 5541 5526 5536 5529 5532 5532 5521 5520 5523 5513 5519 5543 5512 5527 5543 5546 5540 5560 5568 5558 5566 5565 5556 5556 5556 5550 5551
5559 5552 5550 5549 5546 5543 5539 5538 5533 5530 5529 5543 5539 5546 5539 5533 5533 5533 5539 5526 5528 5522 5516 5524 5522 5520 5521 5530 5528 5528 5531 5525 5536 5538 5579 5565 5564 5563 5561 5557 5556 5555 5553 5551
5556 5551 5546 5543 5540 5539 5536 5534 5532 5531 5527 5533 5551 5537 5537 5532 5530 5527 5525 5522 5515 5516 5513 5520 5521 5522 5523 5533 5534 5529 5554 5527 5543 5546 5562 5563 5565 5560 5556 5551 5547 5545 5546 5548
5553 5548 5544 5539 5536 5533 5531 5530 5528 5527 5528 5534 5543 5538 5530 5525 5524 5520 5518 5516 5513 5513 5513 5515 5515 5515 5508 5517 5508 5536 5545 5558 5555 5573 5575 5569 5567 5554 5543 5543 5546 5548 5546 5546
5554 5547 5542 5536 5530 5524 5520 5523 5523 5516 5514 5514 5524 5529 5525 5519 5514 5511 5506 5504 5502 5504 5512 5514 5516 5507 5511 5519 5537 5573 5563 5569 5577 5578 5561 5555 5553 5545 5542 5540 5540 5540 5540 5542
5548 5546 5537 5532 5526 5522 5520 5523 5522 5518 5505 5500 5515 5533 5516 5513 5506 5501 5497 5492 5493 5492 5499 5500 5508 5507 5504 5517 5545 5599 5582 5573 5569 5560 5549 5554 5558 5555 5545 5535 5536 5535 5536 5537
5542 5540 5535 5528 5519 5513 5516 5514 5512 5507 5495 5486 5497 5522 5511 5505 5505 5499 5488 5489 5485 5487 5496 5492 5495 5494 5502 5525 5579 5584 5574 5569 5563 5559 5552 5555 5551 5544 5541 5537 5534 5532 5535 5536
5530 5527 5522 5511 5508 5506 5511 5506 5501 5495 5489 5491 5490 5509 5529 5495 5496 5490 5480 5480 5483 5484 5488 5491 5491 5507 5519 5574 5577 5575 5568 5564 5570 5557 5548 5543 5538 5538 5536 5533 5532 5531 5533 5529
5510 5508 5499 5495 5501 5499 5496 5488 5487 5482 5483 5482 5498 5511 5504 5497 5490 5486 5483 5476 5485 5478 5494 5483 5486 5524 5560 5569 5573 5570 5565 5562 5553 5547 5549 5542 5539 5539 5537 5532 5528 5527 5528 5526
5496 5489 5485 5483 5481 5479 5480 5481 5481 5483 5494 5499 5506 5511 5496 5487 5493 5487 5478 5476 5474 5470 5493 5483 5502 5527 5550 5566 5567 5567 5557 5549 5544 5543 5544 5535 5530 5527 5526 5525 5521 5518 5518 5518
5488 5478 5465 5460 5458 5457 5468 5481 5485 5489 5500 5505 5505 5499 5497 5480 5479 5479 5461 5469 5458 5474 5470 5466 5498 5549 5562 5554 5551 5550 5544 5537 5529 5524 5523 5520 5513 5514 5511 5512 5512 5509 5508 5506
5461 5452 5441 5443 5443 5454 5482 5491 5492 5498 5500 5499 5485 5479 5474 5461 5463 5464 5458 5454 5459 5456 5457 5489 5537 5560 5551 5543 5535 5534 5529 5524 5520 5515 5513 5511 5504 5499 5497 5499 5501 5498 5496 5496
5436 5436 5431 5441 5453 5485 5513 5521 5523 5516 5498 5486 5482 5467 5469 5459 5451 5451 5452 5457 5443 5447 5459 5502 5540 5554 5551 5534 5524 5520 5518 5513 5514 5509 5504 5503 5499 5492 5489 5485 5487 5486 5486 5484
5418 5413 5431 5443 5489 5484 5492 5490 5491 5488 5487 5474 5454 5450 5452 5443 5442 5442 5440 5433 5445 5463 5502 5517 5532 5529 5526 5518 5509 5505 5504 5498 5495 5493 5485 5486 5485 5477 5478 5476 5471 5470 5470 5468
5402 5399 5417 5446 5457 5472 5461 5469 5468 5468 5462 5449 5445 5437 5432 5441 5442 5439 5450 5454 5472 5512 5500 5511 5512 5504 5504 5501 5501 5501 5498 5496 5486 5479 5472 5471 5471 5467 5466 5461 5456 5455 5454 5453
5383 5401 5416 5436 5443 5466 5466 5460 5458 5453 5444 5447 5438 5433 5445 5430 5432 5448 5460 5476 5511 5504 5503 5501 5498 5495 5497 5491 5483 5480 5478 5476 5473 5472 5468 5464 5462 5452 5446 5446 5451 5442 5437 5431